Weather reports worldwide

Advertisment
Leeming, United Kingdom (3257): temperature & dewpoint: 11.11.2018 03:00:00 - 17.11.2018 03:00:00 (GMT)Leeming, United Kingdom (3257): temperature -20cm & temperature -100cm: 11.11.2018 03:00:00 - 17.11.2018 03:00:00 (GMT)Leeming, United Kingdom (3257): wind speed & gusts: 11.11.2018 03:00:00 - 17.11.2018 03:00:00 (GMT)Leeming, United Kingdom (3257): wind direction: 11.11.2018 03:00:00 - 17.11.2018 03:00:00 (GMT)Leeming, United Kingdom (3257): reduced air pressure: 11.11.2018 03:00:00 - 17.11.2018 03:00:00 (GMT)Leeming, United Kingdom (3257): visibility: 11.11.2018 03:00:00 - 17.11.2018 03:00:00 (GMT)Leeming, United Kingdom (3257): sunshine duration: 11.11.2018 03:00:00 - 17.11.2018 03:00:00 (GMT)Leeming, United Kingdom (3257): precipitation: 11.11.2018 03:00:00 - 17.11.2018 03:00:00 (GMT)
Date & Time tt [°C] td [°C] tt -20cm [°C] tt -100cm [°C] ff [km/h] ff [kn] fx [km/h] fx [kn] dd ppp [hPa] vv [km] sd [min] rr [mm]
17.11.2018 03:00:00 7,8 5,2 - - 11 6 - - SSE 1029,1 10 0 0,0
17.11.2018 02:00:00 7,7 5,3 - - 11 6 - - SSE 1029,0 9 0 0,0
17.11.2018 01:00:00 7,6 5,5 - - 11 6 - - SSE 1028,8 9 0 0,0
17.11.2018 00:00:00 7,5 5,5 - - 11 6 - - SSE 1028,6 9 - 0,0
16.11.2018 23:00:00 7,6 5,4 - - 18 10 - - ESE 1028,4 10 0 0,0
16.11.2018 22:00:00 8,0 7,2 - - 16 9 - - ESE 1028,1 6 0 0,0
16.11.2018 21:00:00 9,9 9,5 - - 9 5 - - ESE 1027,4 2,3 0 0,0
16.11.2018 20:00:00 10,4 9,9 - - 11 6 - - SE 1027,3 3,0 0 0,0
16.11.2018 19:00:00 10,6 10,2 - - 9 5 - - SE 1027,1 2,2 0 0,0
16.11.2018 18:00:00 10,7 10,4 - - 9 5 - - SE 1026,9 2,5 0 0,0
16.11.2018 17:00:00 10,6 10,4 - - 8 4 - - SSE 1026,4 3,3 0 0,0
16.11.2018 16:00:00 10,6 10,5 - - 11 6 - - SE 1026,2 2,8 0 0,0
16.11.2018 15:00:00 10,6 10,5 - - 9 5 - - SE 1026,2 2,5 0 0,0
16.11.2018 14:00:00 10,5 10,5 - - 13 7 - - SE 1026,1 0,8 0 0,0
16.11.2018 13:00:00 10,7 10,7 - - 11 6 - - SE 1026,0 1,3 0 0,0
16.11.2018 12:00:00 10,5 10,5 - - 13 7 - - SSE 1026,1 1,6 0 0,0
16.11.2018 11:00:00 10,7 10,6 - - 11 6 - - SSE 1025,9 0,5 0 0,0
16.11.2018 10:00:00 10,8 10,8 - - 9 5 - - SSE 1025,4 0,1 0 0,0
16.11.2018 09:00:00 10,6 10,5 9,5 10,7 11 6 - - SSE 1025,0 0,4 0 0,0
16.11.2018 08:00:00 10,5 10,5 - - 9 5 - - SSE 1024,7 0,1 0 0,0
16.11.2018 07:00:00 10,5 10,4 - - 11 6 - - SE 1023,6 0,2 0 0,0
16.11.2018 06:00:00 10,1 9,9 - - 5 3 - - ESE 1023,2 0,3 0 0,0
16.11.2018 05:00:00 9,5 9,2 - - 2 1 - - E 1023,1 1,4 0 0,0
16.11.2018 04:00:00 9,5 9,2 - - 9 5 - - S 1022,1 1,4 0 0,0
16.11.2018 03:00:00 9,6 9,0 - - 9 5 - - SSE 1022,0 4,0 0 0,0
16.11.2018 02:00:00 9,2 8,7 - - 8 4 - - SSE 1021,7 3,8 0 0,0
16.11.2018 01:00:00 8,8 8,3 - - 8 4 - - SSE 1021,3 3,5 0 0,0
16.11.2018 00:00:00 8,3 7,7 - - 11 6 - - SSE 1021,0 3,5 - 0,0
15.11.2018 23:00:00 9,1 8,5 - - 9 5 - - SSE 1020,8 4,7 0 0,0
15.11.2018 22:00:00 8,3 7,8 - - 5 3 - - NE 1020,4 3,8 0 0,0
15.11.2018 21:00:00 7,8 7,3 - - 18 10 - - SSE 1019,5 3,9 0 0,0
15.11.2018 20:00:00 7,6 6,7 - - 15 8 - - S 1018,9 3,7 0 0,0
15.11.2018 19:00:00 8,0 7,2 - - 15 8 - - SSE 1018,3 4,8 0 0,0
15.11.2018 18:00:00 8,8 7,8 - - 9 5 - - SSE 1018,5 6 0 0,0
15.11.2018 17:00:00 10,0 8,3 - - 15 8 - - SE 1018,0 10 0 0,0
15.11.2018 16:00:00 11,0 8,7 - - 16 9 - - SSE 1018,0 10 12 0,0
15.11.2018 15:00:00 12,0 9,1 - - 15 8 - - SSE 1017,9 10 60 0,0
15.11.2018 14:00:00 12,2 9,4 - - 18 10 - - SSE 1017,7 10 60 0,0
15.11.2018 13:00:00 10,6 9,1 - - 11 6 - - SSE 1018,0 10 60 0,0
15.11.2018 12:00:00 8,4 8,2 - - 15 8 - - SSE 1018,4 4,5 60 0,0
15.11.2018 11:00:00 7,0 7,0 - - 15 8 - - SSE 1018,5 3,0 6 0,0
15.11.2018 10:00:00 5,8 5,8 - - 16 9 - - S 1019,0 0,3 0 0,0
15.11.2018 09:00:00 4,7 4,7 9,5 10,7 21 11 - - SSE 1018,8 0,3 0 0,0
15.11.2018 08:00:00 4,9 4,7 - - 16 9 - - SSE 1018,8 0,1 0 0,0
15.11.2018 07:00:00 4,8 4,6 - - 11 6 - - SSE 1018,6 0,7 0 0,0
15.11.2018 06:00:00 4,6 4,4 - - 13 7 - - SSE 1018,1 3,8 0 0,0
15.11.2018 05:00:00 4,5 4,3 - - 15 8 - - SSE 1018,2 3,6 0 0,0
15.11.2018 04:00:00 4,7 4,3 - - 13 7 - - SSE 1018,2 3,4 0 0,0
15.11.2018 03:00:00 5,2 4,8 - - 21 11 - - SSE 1017,8 4,7 0 0,0
15.11.2018 02:00:00 6,1 5,5 - - 15 8 - - SSE 1017,9 7 0 0,0
15.11.2018 01:00:00 6,6 5,9 - - 21 11 - - SSE 1018,0 9 0 0,0
15.11.2018 00:00:00 7,2 6,5 - - 13 7 - - SE 1017,9 10 - 0,0
14.11.2018 23:00:00 7,8 6,7 - - 9 5 - - SSE 1017,8 15 0 0,0
14.11.2018 22:00:00 8,1 6,8 - - 13 7 - - SSE 1017,6 18 0 0,0
14.11.2018 21:00:00 9,1 7,1 - - 13 7 - - SE 1017,4 20 0 0,0
14.11.2018 20:00:00 9,0 6,8 - - 8 4 - - ESE 1017,1 22 0 0,0
14.11.2018 19:00:00 10,3 7,1 - - 9 5 - - ESE 1017,0 28 0 0,0
14.11.2018 18:00:00 11,5 7,6 - - 26 14 - - S 1016,6 30 0 0,0
14.11.2018 17:00:00 11,9 7,5 - - 21 11 - - S 1016,5 10 0 0,0
14.11.2018 16:00:00 13,0 8,4 - - 18 10 - - S 1016,5 10 0 0,0
14.11.2018 15:00:00 13,2 9,1 - - 29 16 - - S 1016,0 10 0 0,0
14.11.2018 14:00:00 13,3 9,3 - - 22 12 - - SE 1015,9 10 0 0,0
14.11.2018 13:00:00 12,8 9,2 - - 15 8 - - ESE 1016,2 10 0 0,0
14.11.2018 12:00:00 12,8 9,4 - - 11 6 - - SSE 1015,9 10 0 0,0
14.11.2018 11:00:00 11,9 9,3 - - 15 8 - - SE 1015,9 10 0 0,0
14.11.2018 10:00:00 11,3 9,0 - - 21 11 - - ESE 1015,5 10 0 0,0
14.11.2018 09:00:00 10,1 8,9 9,5 10,7 18 10 - - SE 1015,5 10 0 0,0
14.11.2018 08:00:00 9,6 8,9 - - 13 7 - - SE 1015,3 10 0 0,0
14.11.2018 07:00:00 9,5 8,7 - - 16 9 - - SE 1015,1 10 0 0,0
14.11.2018 06:00:00 9,3 8,6 - - 24 13 - - SSE 1014,7 16 0 0,2
14.11.2018 05:00:00 9,1 8,3 - - 16 9 - - SSE 1015,0 12 0 0,0
14.11.2018 04:00:00 8,8 7,9 - - 21 11 - - SSE 1015,7 13 0 0,2
14.11.2018 03:00:00 8,8 7,2 - - 18 10 - - SSE 1016,1 16 0 0,0
14.11.2018 02:00:00 8,8 6,9 - - 24 13 - - SSE 1016,9 19 0 0,0
14.11.2018 01:00:00 8,9 7,0 - - 22 12 - - SSE 1017,6 18 0 0,0
14.11.2018 00:00:00 9,4 7,1 - - 18 10 - - SSE 1018,2 24 - 0,0
13.11.2018 23:00:00 9,3 6,8 - - 18 10 - - SSE 1018,8 26 0 0,0
13.11.2018 22:00:00 9,9 6,6 - - 18 10 - - SE 1018,7 28 0 0,0
13.11.2018 21:00:00 9,8 6,6 - - 21 11 - - SSE 1018,9 29 0 0,0
13.11.2018 20:00:00 9,9 6,7 - - 24 13 - - S 1019,0 10 0 0,0
13.11.2018 19:00:00 8,4 5,9 - - 11 6 - - SSE 1019,4 30 0 0,0
13.11.2018 18:00:00 9,0 5,5 - - 18 10 - - S 1018,7 10 0 0,0
13.11.2018 17:00:00 9,5 6,0 - - 22 12 - - SW 1018,7 10 0 0,0
13.11.2018 16:00:00 9,2 5,4 - - 16 9 - - SW 1018,4 10 30 0,0
13.11.2018 15:00:00 11,2 5,9 - - 29 16 - - WSW 1017,5 10 60 0,0
13.11.2018 14:00:00 12,1 5,9 - - 21 11 - - WSW 1016,7 10 60 0,0
13.11.2018 13:00:00 11,8 5,3 - - 31 17 48 26 WSW 1016,1 10 60 0,0
13.11.2018 12:00:00 11,7 5,8 - - 29 16 46 25 WSW 1015,2 10 42 0,0
13.11.2018 11:00:00 11,1 5,8 - - 24 13 - - WSW 1014,6 10 12 0,0
13.11.2018 10:00:00 10,6 5,3 - - 28 15 - - W 1013,3 10 48 0,0
13.11.2018 09:00:00 10,0 6,0 9,4 10,9 31 17 48 26 WSW 1012,0 10 6 0,0
13.11.2018 08:00:00 9,4 5,9 - - 28 15 - - WSW 1010,7 10 0 0,0
13.11.2018 07:00:00 9,3 6,0 - - 21 11 - - WSW 1009,5 10 0 0,0
13.11.2018 06:00:00 8,7 6,0 - - 15 8 - - WSW 1008,3 10 0 0,0
13.11.2018 05:00:00 8,5 6,7 - - 15 8 - - S 1007,4 50 0 0,0
13.11.2018 04:00:00 8,7 6,6 - - 18 10 - - SSW 1006,3 30 0 0,0
13.11.2018 03:00:00 8,2 5,7 - - 18 10 - - S 1006,0 10 0 0,0
13.11.2018 02:00:00 8,2 5,3 - - 18 10 - - S 1005,6 50 0 0,0
13.11.2018 01:00:00 8,2 5,0 - - 16 9 - - S 1005,2 50 0 0,0
13.11.2018 00:00:00 8,1 4,8 - - 26 14 - - S 1004,5 10 - 0,0
12.11.2018 23:00:00 8,2 5,8 - - 22 12 - - S 1004,0 35 0 0,0
12.11.2018 22:00:00 7,8 6,0 - - 21 11 - - SSE 1004,3 30 0 0,0
12.11.2018 21:00:00 8,1 6,3 - - 18 10 - - SSE 1004,8 10 0 0,0
12.11.2018 20:00:00 8,2 6,0 - - 22 12 - - SSE 1004,7 45 0 0,0
12.11.2018 19:00:00 8,9 5,4 - - 15 8 - - SE 1004,9 10 0 0,0
12.11.2018 18:00:00 9,9 5,9 - - 22 12 - - S 1004,6 10 0 0,0
12.11.2018 17:00:00 10,1 6,8 - - 21 11 - - SSE 1004,3 10 0 0,0
12.11.2018 16:00:00 11,0 6,3 - - 28 15 - - S 1003,9 10 6 0,0
12.11.2018 15:00:00 12,3 6,6 - - 29 16 - - S 1003,4 10 24 0,0
12.11.2018 14:00:00 12,0 7,3 - - 26 14 - - S 1003,4 10 42 0,0
12.11.2018 13:00:00 12,8 7,6 - - 28 15 - - S 1003,5 35 54 0,0
12.11.2018 12:00:00 11,2 7,6 - - 26 14 - - SSE 1003,6 30 60 0,0
12.11.2018 11:00:00 10,1 7,8 - - 15 8 - - SSE 1004,0 10 54 0,0
12.11.2018 10:00:00 8,0 6,7 - - 18 10 - - SSE 1003,9 10 48 0,0
12.11.2018 09:00:00 6,6 5,7 9,4 10,9 16 9 - - SSE 1003,6 10 24 0,0
12.11.2018 08:00:00 5,7 5,1 - - 18 10 - - SSE 1003,3 10 0 0,0
12.11.2018 07:00:00 5,5 4,9 - - 21 11 - - SSE 1002,5 10 0 0,0
12.11.2018 06:00:00 5,9 5,2 - - 18 10 - - S 1002,5 11 0 0,0
12.11.2018 05:00:00 5,5 4,9 - - 22 12 - - S 1002,3 11 0 0,0
12.11.2018 04:00:00 5,8 4,9 - - 22 12 - - SSE 1002,1 14 0 0,0
12.11.2018 03:00:00 6,0 5,0 - - 21 11 - - SSE 1001,9 10 0 0,0
12.11.2018 02:00:00 5,9 4,8 - - 16 9 - - SSE 1002,0 18 0 0,0
12.11.2018 01:00:00 6,0 4,9 - - 15 8 - - SSE 1001,3 16 0 0,0
12.11.2018 00:00:00 6,4 5,3 - - 21 11 - - SSE 1001,1 16 - 0,0
11.11.2018 23:00:00 6,3 5,0 - - 16 9 - - SSE 1001,1 10 0 0,0
11.11.2018 22:00:00 6,3 5,0 - - 16 9 - - SSE 1000,5 23 0 0,0
11.11.2018 21:00:00 6,4 4,6 - - 18 10 - - SSE 1000,3 10 0 0,0
11.11.2018 20:00:00 7,6 5,1 - - 22 12 - - S 999,4 30 0 0,0
11.11.2018 19:00:00 7,5 4,7 - - 13 7 - - SE 999,0 50 0 0,0
11.11.2018 18:00:00 8,7 5,0 - - 13 7 - - SE 998,2 10 0 0,0
11.11.2018 17:00:00 8,2 5,5 - - 9 5 - - S 997,3 50 0 0,0
11.11.2018 16:00:00 9,1 5,7 - - 22 12 - - SSW 995,9 50 18 0,0
11.11.2018 15:00:00 9,4 5,7 - - 15 8 - - S 995,2 50 42 0,0
11.11.2018 14:00:00 10,5 8,9 - - 16 9 - - S 994,1 27 12 0,0
11.11.2018 13:00:00 8,6 8,2 - - 15 8 - - S 993,3 6 0 0,6
11.11.2018 12:00:00 8,4 8,0 - - 13 7 - - SSE 992,9 6 0 0,2
11.11.2018 11:00:00 7,8 7,6 - - 11 6 - - SSE 992,8 10 0 0,0
11.11.2018 10:00:00 7,0 7,0 - - 9 5 - - S 992,8 6 0 0,0
11.11.2018 09:00:00 6,0 6,0 9,7 11,0 9 5 - - SSE 992,6 4,0 0 0,0
11.11.2018 08:00:00 6,3 6,3 - - 11 6 - - SSE 992,4 1,3 0 0,0
11.11.2018 07:00:00 5,9 5,8 - - 11 6 - - S 992,0 0,1 0 0,0
11.11.2018 06:00:00 6,2 6,2 - - 11 6 - - SSE 991,7 0,3 0 0,0
11.11.2018 05:00:00 6,6 6,5 - - 13 7 - - S 991,6 0,4 0 0,0
11.11.2018 04:00:00 6,8 6,6 - - 11 6 - - S 991,5 0,4 0 0,0
11.11.2018 03:00:00 6,3 6,1 - - 13 7 - - SSE 991,4 3,1 0 0,0

tt = temperature
td = dewpoint
tt -20cm = temperature -20cm
tt -100cm = temperature -100cm
ff = wind speed
fx = gusts
dd = wind direction
ppp = reduced air pressure
vv = visibility
sd = sunshine duration
rr = precipitation

Next stations